START_TIME,STEP,MOV.,A46,t_acc.,A13,t_acc.,M47,t_acc.,A17,t_acc.,A28,t_acc.,M38,t_acc.
1989-08-27T03:00:26.090 ,2,0,,0,0.,4.8,0.,4.8,,0,0.,4.8,0.,4.8
1989-08-27T03:00:30.890 ,2,0,,0,0.,4.8,0.,4.8,,0,0.,4.8,0.,4.8
1989-08-27T03:00:35.690 ,2,0,,0,0.,4.8,0.,4.8,,0,0.,4.8,0.,4.8
1989-08-27T03:00:40.490 ,2,0,,0,0.,4.8,0.,4.8,,0,0.,4.8,0.,4.8
1989-08-27T03:00:45.290 ,2,0,,0,0.,4.8,0.,4.8,,0,0.,4.8,0.,4.8
1989-08-27T03:00:50.090 ,3,0,,0,0.,4.8,0.,4.8,,0,0.,4.8,0.,4.8
1989-08-27T03:00:54.890 ,3,0,,0,0.,4.8,0.,4.8,,0,0.,4.8,0.,4.8
1989-08-27T03:00:59.690 ,3,0,,0,1.,4.8,0.,4.8,,0,0.,4.8,0.,4.8
1989-08-27T03:01:04.490 ,3,0,,0,0.,4.8,0.,4.8,,0,0.,4.8,0.,4.8
1989-08-27T03:01:09.290 ,3,0,,0,0.,4.8,0.,4.8,,0,0.,4.8,0.,4.8
1989-08-27T03:01:14.090 ,3,0,,0,0.,4.8,0.,4.8,,0,0.,4.8,0.,4.8
1989-08-27T03:01:18.890 ,3,0,,0,0.,4.8,0.,4.8,,0,0.,4.8,0.,4.8
1989-08-27T03:01:23.690 ,3,0,,0,0.,4.8,0.,4.8,,0,0.,4.8,0.,4.8
1989-08-27T03:01:28.490 ,3,0,,0,0.,4.8,0.,4.8,,0,0.,4.8,0.,4.8
1989-08-27T03:01:33.290 ,3,0,,0,0.,4.8,0.,4.8,,0,0.,4.8,0.,4.8
1989-08-27T03:01:38.090 ,4,0,,0,0.,4.8,0.,4.8,,0,0.,4.8,0.,4.8
1989-08-27T03:01:42.890 ,4,0,,0,0.,4.8,0.,4.8,,0,0.,4.8,0.,4.8
1989-08-27T03:01:47.690 ,4,0,,0,1.,4.8,0.,4.8,,0,0.,4.8,0.,4.8
1989-08-27T03:01:52.490 ,4,0,,0,0.,4.8,0.,4.8,,0,0.,4.8,0.,4.8
1989-08-27T03:01:57.290 ,4,0,,0,0.,4.8,0.,4.8,,0,0.,4.8,0.,4.8
1989-08-27T03:02:02.090 ,4,0,,0,0.,4.8,0.,4.8,,0,0.,4.8,0.,4.8
1989-08-27T03:02:06.890 ,4,0,,0,1.,4.8,1.,4.8,,0,0.,4.8,0.,4.8
1989-08-27T03:02:11.690 ,4,0,,0,0.,4.8,0.,4.8,,0,0.,4.8,0.,4.8
1989-08-27T03:02:16.490 ,4,0,,0,0.,4.8,0.,4.8,,0,0.,4.8,0.,4.8
1989-08-27T03:02:21.290 ,4,0,,0,0.,4.8,0.,4.8,,0,0.,4.8,0.,4.8
1989-08-27T03:02:26.090 ,5,0,,0,0.,4.8,0.,4.8,,0,0.,4.8,0.,4.8
1989-08-27T03:02:30.890 ,5,0,,0,0.,4.8,0.,4.8,,0,0.,4.8,0.,4.8
1989-08-27T03:02:35.690 ,5,0,,0,1.,4.8,0.,4.8,,0,0.,4.8,0.,4.8
1989-08-27T03:02:40.490 ,5,0,,0,0.,4.8,0.,4.8,,0,0.,4.8,0.,4.8
1989-08-27T03:02:45.290 ,5,0,,0,0.,4.8,0.,4.8,,0,0.,4.8,0.,4.8
1989-08-27T03:02:50.090 ,5,0,,0,0.,4.8,0.,4.8,,0,0.,4.8,0.,4.8
1989-08-27T03:02:54.890 ,5,0,,0,0.,4.8,0.,4.8,,0,0.,4.8,0.,4.8
1989-08-27T03:02:59.690 ,5,0,,0,0.,4.8,0.,4.8,,0,0.,4.8,0.,4.8
1989-08-27T03:03:04.490 ,5,0,,0,0.,4.8,0.,4.8,,0,0.,4.8,0.,4.8
1989-08-27T03:03:09.290 ,5,0,,0,0.,4.8,0.,4.8,,0,0.,4.8,0.,4.8
1989-08-27T03:03:14.090 ,6,0,,0,0.,4.8,0.,4.8,,0,0.,4.8,0.,4.8
1989-08-27T03:03:18.890 ,6,0,,0,0.,4.8,0.,4.8,,0,0.,4.8,0.,4.8
1989-08-27T03:03:23.690 ,6,0,,0,1.,4.8,0.,4.8,,0,0.,4.8,0.,4.8
1989-08-27T03:03:28.490 ,6,0,,0,0.,4.8,0.,4.8,,0,0.,4.8,0.,4.8
1989-08-27T03:03:33.290 ,6,0,,0,0.,4.8,0.,4.8,,0,0.,4.8,0.,4.8
1989-08-27T03:03:38.090 ,6,0,,0,0.,4.8,0.,4.8,,0,0.,4.8,0.,4.8
1989-08-27T03:03:42.890 ,6,0,,0,0.,4.8,0.,4.8,,0,0.,4.8,0.,4.8
1989-08-27T03:03:47.690 ,6,0,,0,0.,4.8,0.,4.8,,0,0.,4.8,0.,4.8
1989-08-27T03:03:52.490 ,6,0,,0,0.,4.8,0.,4.8,,0,0.,4.8,0.,4.8
1989-08-27T03:03:57.290 ,6,0,,0,0.,4.8,0.,4.8,,0,0.,4.8,0.,4.8
1989-08-27T03:04:02.090 ,7,0,,0,0.,4.8,0.,4.8,,0,0.,4.8,0.,4.8
1989-08-27T03:04:06.890 ,7,0,,0,0.,4.8,0.,4.8,,0,0.,4.8,0.,4.8
1989-08-27T03:04:11.690 ,7,0,,0,4.,4.8,0.,4.8,,0,0.,4.8,0.,4.8
1989-08-27T03:04:16.490 ,7,0,,0,6.,4.8,0.,4.8,,0,0.,4.8,0.,4.8
1989-08-27T03:04:21.290 ,7,0,,0,7.,4.8,0.,4.8,,0,0.,4.8,0.,4.8
1989-08-27T03:04:26.090 ,7,0,,0,2.,4.8,0.,4.8,,0,0.,4.8,0.,4.8
1989-08-27T03:04:30.890 ,7,0,,0,3.,4.8,0.,4.8,,0,0.,4.8,0.,4.8
1989-08-27T03:04:35.690 ,7,0,,0,0.,4.8,0.,4.8,,0,0.,4.8,0.,4.8
1989-08-27T03:04:40.490 ,7,0,,0,0.,4.8,0.,4.8,,0,0.,4.8,0.,4.8
1989-08-27T03:04:45.290 ,7,0,,0,0.,4.8,0.,4.8,,0,0.,4.8,0.,4.8
1989-08-27T03:04:50.090 ,7,0,,0,0.,4.8,0.,4.8,,0,0.,4.8,0.,4.8
1989-08-27T03:04:54.890 ,7,0,,0,0.,4.8,0.,4.8,,0,0.,4.8,0.,4.8
1989-08-27T03:04:59.690 ,7,0,,0,3.,4.8,0.,4.8,,0,0.,4.8,0.,4.8
1989-08-27T03:05:04.490 ,7,0,,0,0.,4.8,0.,4.8,,0,0.,4.8,0.,4.8
1989-08-27T03:05:09.290 ,7,0,,0,5.,4.8,0.,4.8,,0,0.,4.8,0.,4.8
1989-08-27T03:05:14.090 ,7,0,,0,6.,4.8,0.,4.8,,0,0.,4.8,0.,4.8
1989-08-27T03:05:18.890 ,7,0,,0,2.,4.8,0.,4.8,,0,0.,4.8,0.,4.8
1989-08-27T03:05:23.690 ,7,0,,0,4.,4.8,0.,4.8,,0,0.,4.8,0.,4.8
1989-08-27T03:05:28.490 ,7,0,,0,0.,4.8,0.,4.8,,0,0.,4.8,0.,4.8
1989-08-27T03:05:33.290 ,7,0,,0,0.,4.8,0.,4.8,,0,0.,4.8,0.,4.8
1989-08-27T03:05:38.090 ,6,0,,0,0.,4.8,0.,4.8,,0,0.,4.8,0.,4.8
1989-08-27T03:05:42.890 ,6,0,,0,0.,4.8,0.,4.8,,0,0.,4.8,0.,4.8
1989-08-27T03:05:47.690 ,6,0,,0,1.,4.8,0.,4.8,,0,0.,4.8,0.,4.8
1989-08-27T03:05:52.490 ,6,0,,0,0.,4.8,0.,4.8,,0,0.,4.8,0.,4.8
1989-08-27T03:05:57.290 ,6,0,,0,0.,4.8,0.,4.8,,0,0.,4.8,0.,4.8
1989-08-27T03:06:02.090 ,6,0,,0,0.,4.8,0.,4.8,,0,0.,4.8,0.,4.8
1989-08-27T03:06:06.890 ,6,0,,0,0.,4.8,0.,4.8,,0,0.,4.8,0.,4.8
1989-08-27T03:06:11.690 ,6,0,,0,1.,4.8,0.,4.8,,0,0.,4.8,0.,4.8
1989-08-27T03:06:16.490 ,6,0,,0,0.,4.8,0.,4.8,,0,0.,4.8,0.,4.8
1989-08-27T03:06:21.290 ,6,0,,0,0.,4.8,0.,4.8,,0,0.,4.8,0.,4.8
1989-08-27T03:06:26.090 ,5,0,,0,0.,4.8,0.,4.8,,0,0.,4.8,0.,4.8
1989-08-27T03:06:30.890 ,5,0,,0,0.,4.8,0.,4.8,,0,0.,4.8,0.,4.8
1989-08-27T03:06:35.690 ,5,0,,0,1.,4.8,0.,4.8,,0,0.,4.8,0.,4.8
1989-08-27T03:06:40.490 ,5,0,,0,0.,4.8,0.,4.8,,0,0.,4.8,0.,4.8
1989-08-27T03:06:45.290 ,5,0,,0,0.,4.8,0.,4.8,,0,0.,4.8,0.,4.8
1989-08-27T03:06:50.090 ,5,0,,0,0.,4.8,0.,4.8,,0,0.,4.8,0.,4.8
1989-08-27T03:06:54.890 ,5,0,,0,0.,4.8,0.,4.8,,0,0.,4.8,0.,4.8
1989-08-27T03:06:59.690 ,5,0,,0,0.,4.8,0.,4.8,,0,0.,4.8,0.,4.8
1989-08-27T03:07:04.490 ,5,0,,0,0.,4.8,0.,4.8,,0,0.,4.8,0.,4.8
1989-08-27T03:07:09.290 ,5,0,,0,0.,4.8,0.,4.8,,0,0.,4.8,0.,4.8
1989-08-27T03:07:14.090 ,4,0,,0,0.,4.8,0.,4.8,,0,0.,4.8,0.,4.8
1989-08-27T03:07:18.890 ,4,0,,0,0.,4.8,0.,4.8,,0,0.,4.8,0.,4.8
1989-08-27T03:07:23.690 ,4,0,,0,1.,4.8,0.,4.8,,0,0.,4.8,0.,4.8
1989-08-27T03:07:28.490 ,4,0,,0,0.,4.8,0.,4.8,,0,0.,4.8,0.,4.8
1989-08-27T03:07:33.290 ,4,0,,0,0.,4.8,0.,4.8,,0,0.,4.8,0.,4.8
1989-08-27T03:07:38.090 ,4,0,,0,0.,4.8,0.,4.8,,0,0.,4.8,0.,4.8
1989-08-27T03:07:42.890 ,4,0,,0,0.,4.8,0.,4.8,,0,0.,4.8,0.,4.8
1989-08-27T03:07:47.690 ,4,0,,0,0.,4.8,0.,4.8,,0,0.,4.8,0.,4.8
1989-08-27T03:07:52.490 ,4,0,,0,0.,4.8,0.,4.8,,0,0.,4.8,0.,4.8
1989-08-27T03:07:57.290 ,4,0,,0,0.,4.8,0.,4.8,,0,0.,4.8,0.,4.8
1989-08-27T03:08:02.090 ,3,0,,0,0.,4.8,0.,4.8,,0,0.,4.8,0.,4.8
1989-08-27T03:08:06.890 ,3,0,,0,0.,4.8,0.,4.8,,0,0.,4.8,0.,4.8
1989-08-27T03:08:11.690 ,3,0,,0,1.,4.8,0.,4.8,,0,0.,4.8,0.,4.8
1989-08-27T03:08:16.490 ,3,0,,0,0.,4.8,0.,4.8,,0,0.,4.8,0.,4.8
1989-08-27T03:08:21.290 ,3,0,,0,0.,4.8,0.,4.8,,0,0.,4.8,0.,4.8
1989-08-27T03:08:26.090 ,3,0,,0,0.,4.8,0.,4.8,,0,0.,4.8,0.,4.8
1989-08-27T03:08:30.890 ,3,0,,0,0.,4.8,0.,4.8,,0,0.,4.8,0.,4.8
1989-08-27T03:08:35.690 ,3,0,,0,0.,4.8,0.,4.8,,0,0.,4.8,0.,4.8
1989-08-27T03:08:40.490 ,3,0,,0,0.,4.8,0.,4.8,,0,0.,4.8,0.,4.8
1989-08-27T03:08:45.290 ,3,0,,0,0.,4.8,0.,4.8,,0,0.,4.8,0.,4.8
1989-08-27T03:08:50.090 ,2,0,,0,0.,4.8,0.,4.8,,0,0.,4.8,0.,4.8
1989-08-27T03:08:54.890 ,2,0,,0,0.,4.8,0.,4.8,,0,0.,4.8,0.,4.8
1989-08-27T03:08:59.690 ,2,0,,0,1.,4.8,0.,4.8,,0,0.,4.8,0.,4.8
1989-08-27T03:09:04.490 ,2,0,,0,0.,4.8,0.,4.8,,0,0.,4.8,0.,4.8
1989-08-27T03:09:09.290 ,2,0,,0,0.,4.8,0.,4.8,,0,0.,4.8,0.,4.8
1989-08-27T03:09:14.090 ,2,0,,0,0.,4.8,0.,4.8,,0,0.,4.8,0.,4.8
1989-08-27T03:09:18.890 ,2,0,,0,0.,4.8,0.,4.8,,0,0.,4.8,0.,4.8
1989-08-27T03:09:23.690 ,2,0,,0,0.,4.8,0.,4.8,,0,0.,4.8,0.,4.8
1989-08-27T03:09:28.490 ,2,0,,0,0.,4.8,0.,4.8,,0,0.,4.8,0.,4.8
1989-08-27T03:09:33.290 ,2,0,,0,0.,4.8,0.,4.8,,0,0.,4.8,0.,4.8
1989-08-27T03:09:38.090 ,1,0,,0,0.,4.8,0.,4.8,,0,0.,4.8,0.,4.8
1989-08-27T03:09:42.890 ,1,0,,0,0.,4.8,0.,4.8,,0,0.,4.8,0.,4.8
1989-08-27T03:09:47.690 ,1,0,,0,1.,4.8,0.,4.8,,0,0.,4.8,0.,4.8
1989-08-27T03:09:52.490 ,1,0,,0,0.,4.8,0.,4.8,,0,0.,4.8,0.,4.8
1989-08-27T03:09:57.290 ,1,0,,0,1.,4.8,0.,4.8,,0,0.,4.8,0.,4.8
1989-08-27T03:10:02.090 ,1,0,,0,0.,4.8,0.,4.8,,0,0.,4.8,0.,4.8
1989-08-27T03:10:06.890 ,1,0,,0,0.,4.8,0.,4.8,,0,0.,4.8,0.,4.8
1989-08-27T03:10:11.690 ,1,0,,0,0.,4.8,0.,4.8,,0,0.,4.8,0.,4.8
1989-08-27T03:10:16.490 ,1,0,,0,0.,4.8,0.,4.8,,0,0.,4.8,0.,4.8
1989-08-27T03:10:21.290 ,1,0,,0,0.,4.8,0.,4.8,,0,0.,4.8,0.,4.8
1989-08-27T03:10:26.090 ,0,0,,0,0.,4.8,0.,4.8,,0,0.,4.8,0.,4.8
1989-08-27T03:10:30.890 ,0,0,,0,0.,4.8,0.,4.8,,0,0.,4.8,0.,4.8
1989-08-27T03:10:35.690 ,0,0,,0,1.,4.8,0.,4.8,,0,0.,4.8,0.,4.8
1989-08-27T03:10:40.490 ,0,0,,0,0.,4.8,0.,4.8,,0,0.,4.8,0.,4.8
1989-08-27T03:10:45.290 ,0,0,,0,0.,4.8,0.,4.8,,0,0.,4.8,0.,4.8
1989-08-27T03:10:50.090 ,0,0,,0,0.,4.8,0.,4.8,,0,0.,4.8,0.,4.8
1989-08-27T03:10:54.890 ,0,0,,0,0.,4.8,0.,4.8,,0,0.,4.8,0.,4.8
1989-08-27T03:10:59.690 ,0,0,,0,0.,4.8,0.,4.8,,0,0.,4.8,0.,4.8
1989-08-27T03:11:04.490 ,0,0,,0,0.,4.8,0.,4.8,,0,0.,4.8,0.,4.8
1989-08-27T03:11:09.290 ,0,0,,0,0.,4.8,0.,4.8,,0,0.,4.8,0.,4.8
1989-08-27T03:11:14.090 ,0,0,,0,0.,4.8,0.,4.8,,0,0.,4.8,0.,4.8
1989-08-27T03:11:18.890 ,0,0,,0,0.,4.8,0.,4.8,,0,0.,4.8,0.,4.8
1989-08-27T03:11:23.690 ,0,0,,0,1.,4.8,0.,4.8,,0,0.,4.8,0.,4.8
1989-08-27T03:11:28.490 ,0,0,,0,0.,4.8,0.,4.8,,0,0.,4.8,0.,4.8
1989-08-27T03:11:33.290 ,0,0,,0,0.,4.8,0.,4.8,,0,0.,4.8,0.,4.8
1989-08-27T03:11:38.090 ,0,0,,0,0.,4.8,0.,4.8,,0,0.,4.8,0.,4.8
1989-08-27T03:11:42.890 ,0,0,,0,0.,4.8,0.,4.8,,0,0.,4.8,0.,4.8
1989-08-27T03:11:47.690 ,0,0,,0,0.,4.8,0.,4.8,,0,0.,4.8,0.,4.8
1989-08-27T03:11:52.490 ,0,0,,0,0.,4.8,0.,4.8,,0,0.,4.8,0.,4.8
1989-08-27T03:11:57.290 ,0,0,,0,0.,4.8,0.,4.8,,0,0.,4.8,0.,4.8
1989-08-27T03:12:02.090 ,1,0,,0,0.,4.8,0.,4.8,,0,0.,4.8,0.,4.8
1989-08-27T03:12:06.890 ,1,0,,0,0.,4.8,0.,4.8,,0,0.,4.8,0.,4.8
1989-08-27T03:12:11.690 ,1,0,,0,1.,4.8,0.,4.8,,0,0.,4.8,0.,4.8
1989-08-27T03:12:16.490 ,1,0,,0,0.,4.8,0.,4.8,,0,0.,4.8,0.,4.8
1989-08-27T03:12:21.290 ,1,0,,0,0.,4.8,0.,4.8,,0,0.,4.8,0.,4.8
1989-08-27T03:12:26.090 ,1,0,,0,1.,4.8,0.,4.8,,0,0.,4.8,0.,4.8
1989-08-27T03:12:30.890 ,1,0,,0,0.,4.8,0.,4.8,,0,0.,4.8,0.,4.8
1989-08-27T03:12:35.690 ,1,0,,0,0.,4.8,0.,4.8,,0,0.,4.8,0.,4.8
1989-08-27T03:12:40.490 ,1,0,,0,0.,4.8,0.,4.8,,0,0.,4.8,0.,4.8
1989-08-27T03:12:45.290 ,1,0,,0,0.,4.8,0.,4.8,,0,0.,4.8,0.,4.8
1989-08-27T03:12:50.090 ,2,0,,0,0.,4.8,0.,4.8,,0,0.,4.8,0.,4.8
1989-08-27T03:12:54.890 ,2,0,,0,0.,4.8,0.,4.8,,0,0.,4.8,0.,4.8
1989-08-27T03:12:59.690 ,2,0,,0,1.,4.8,0.,4.8,,0,0.,4.8,0.,4.8
1989-08-27T03:13:04.490 ,2,0,,0,0.,4.8,0.,4.8,,0,0.,4.8,0.,4.8
1989-08-27T03:13:09.290 ,2,0,,0,0.,4.8,0.,4.8,,0,0.,4.8,0.,4.8
1989-08-27T03:13:14.090 ,2,0,,0,0.,4.8,0.,4.8,,0,0.,4.8,0.,4.8
1989-08-27T03:13:18.890 ,2,0,,0,0.,4.8,0.,4.8,,0,0.,4.8,0.,4.8
1989-08-27T03:13:23.690 ,2,0,,0,0.,4.8,0.,4.8,,0,0.,4.8,0.,4.8
1989-08-27T03:13:28.490 ,2,0,,0,0.,4.8,0.,4.8,,0,0.,4.8,0.,4.8
1989-08-27T03:13:33.290 ,2,0,,0,0.,4.8,0.,4.8,,0,0.,4.8,0.,4.8
1989-08-27T03:13:38.090 ,3,0,,0,0.,4.8,0.,4.8,,0,0.,4.8,0.,4.8
1989-08-27T03:13:42.890 ,3,0,,0,0.,4.8,0.,4.8,,0,0.,4.8,0.,4.8
1989-08-27T03:13:47.690 ,3,0,,0,1.,4.8,0.,4.8,,0,0.,4.8,0.,4.8
1989-08-27T03:13:52.490 ,3,0,,0,0.,4.8,0.,4.8,,0,0.,4.8,0.,4.8
1989-08-27T03:13:57.290 ,3,0,,0,0.,4.8,0.,4.8,,0,0.,4.8,0.,4.8
1989-08-27T03:14:02.090 ,3,0,,0,0.,4.8,0.,4.8,,0,0.,4.8,0.,4.8
1989-08-27T03:14:06.890 ,3,0,,0,0.,4.8,0.,4.8,,0,0.,4.8,0.,4.8
1989-08-27T03:14:11.690 ,3,0,,0,0.,4.8,0.,4.8,,0,0.,4.8,0.,4.8
1989-08-27T03:14:16.490 ,3,0,,0,0.,4.8,0.,4.8,,0,0.,4.8,0.,4.8
1989-08-27T03:14:21.290 ,3,0,,0,0.,4.8,0.,4.8,,0,0.,4.8,0.,4.8
1989-08-27T03:14:26.090 ,4,0,,0,0.,4.8,0.,4.8,,0,0.,4.8,0.,4.8
1989-08-27T03:14:30.890 ,4,0,,0,0.,4.8,0.,4.8,,0,0.,4.8,0.,4.8
1989-08-27T03:14:35.690 ,4,0,,0,1.,4.8,0.,4.8,,0,0.,4.8,0.,4.8
1989-08-27T03:14:40.490 ,4,0,,0,0.,4.8,0.,4.8,,0,0.,4.8,0.,4.8
1989-08-27T03:14:45.290 ,4,0,,0,0.,4.8,0.,4.8,,0,0.,4.8,0.,4.8
1989-08-27T03:14:50.090 ,4,0,,0,0.,4.8,0.,4.8,,0,0.,4.8,0.,4.8
1989-08-27T03:14:54.890 ,4,0,,0,0.,4.8,0.,4.8,,0,0.,4.8,0.,4.8
1989-08-27T03:14:59.690 ,4,0,,0,0.,4.8,0.,4.8,,0,0.,4.8,0.,4.8
1989-08-27T03:15:04.490 ,4,0,,0,0.,4.8,0.,4.8,,0,0.,4.8,0.,4.8
1989-08-27T03:15:09.290 ,4,0,,0,0.,4.8,0.,4.8,,0,0.,4.8,0.,4.8
1989-08-27T03:15:14.090 ,5,0,,0,0.,4.8,0.,4.8,,0,0.,4.8,0.,4.8
1989-08-27T03:15:18.890 ,5,0,,0,0.,4.8,0.,4.8,,0,0.,4.8,0.,4.8
1989-08-27T03:15:23.690 ,5,0,,0,1.,4.8,0.,4.8,,0,0.,4.8,0.,4.8
1989-08-27T03:15:28.490 ,5,0,,0,0.,4.8,0.,4.8,,0,0.,4.8,0.,4.8
1989-08-27T03:15:33.290 ,5,0,,0,0.,4.8,0.,4.8,,0,0.,4.8,0.,4.8
1989-08-27T03:15:38.090 ,5,0,,0,0.,4.8,0.,4.8,,0,0.,4.8,0.,4.8
1989-08-27T03:15:42.890 ,5,0,,0,0.,4.8,0.,4.8,,0,0.,4.8,0.,4.8
1989-08-27T03:15:47.690 ,5,0,,0,0.,4.8,0.,4.8,,0,0.,4.8,0.,4.8
1989-08-27T03:15:52.490 ,5,0,,0,0.,4.8,0.,4.8,,0,0.,4.8,0.,4.8
1989-08-27T03:15:57.290 ,5,0,,0,0.,4.8,0.,4.8,,0,0.,4.8,0.,4.8
1989-08-27T03:16:02.090 ,6,0,,0,0.,4.8,0.,4.8,,0,0.,4.8,0.,4.8
1989-08-27T03:16:06.890 ,6,0,,0,0.,4.8,0.,4.8,,0,0.,4.8,0.,4.8
1989-08-27T03:16:11.690 ,6,0,,0,1.,4.8,0.,4.8,,0,0.,4.8,0.,4.8
1989-08-27T03:16:16.490 ,6,0,,0,0.,4.8,0.,4.8,,0,0.,4.8,0.,4.8
1989-08-27T03:16:21.290 ,6,0,,0,0.,4.8,0.,4.8,,0,0.,4.8,0.,4.8
1989-08-27T03:16:26.090 ,6,0,,0,0.,4.8,0.,4.8,,0,0.,4.8,0.,4.8
1989-08-27T03:16:30.890 ,6,0,,0,0.,4.8,0.,4.8,,0,0.,4.8,0.,4.8
1989-08-27T03:16:35.690 ,6,0,,0,0.,4.8,0.,4.8,,0,0.,4.8,0.,4.8
1989-08-27T03:16:40.490 ,6,0,,0,0.,4.8,0.,4.8,,0,0.,4.8,0.,4.8
1989-08-27T03:16:45.290 ,6,0,,0,0.,4.8,0.,4.8,,0,0.,4.8,0.,4.8
1989-08-27T03:16:50.090 ,7,0,,0,0.,4.8,0.,4.8,,0,0.,4.8,0.,4.8
1989-08-27T03:16:54.890 ,7,0,,0,0.,4.8,0.,4.8,,0,0.,4.8,0.,4.8
1989-08-27T03:16:59.690 ,7,0,,0,1.,4.8,0.,4.8,,0,0.,4.8,0.,4.8
1989-08-27T03:17:04.490 ,7,0,,0,3.,4.8,0.,4.8,,0,0.,4.8,0.,4.8
1989-08-27T03:17:09.290 ,7,0,,0,5.,4.8,0.,4.8,,0,0.,4.8,0.,4.8
1989-08-27T03:17:14.090 ,7,0,,0,6.,4.8,0.,4.8,,0,0.,4.8,0.,4.8
1989-08-27T03:17:18.890 ,7,0,,0,5.,4.8,0.,4.8,,0,0.,4.8,0.,4.8
1989-08-27T03:17:23.690 ,7,0,,0,3.,4.8,0.,4.8,,0,0.,4.8,0.,4.8
1989-08-27T03:17:28.490 ,7,0,,0,0.,4.8,0.,4.8,,0,0.,4.8,0.,4.8
1989-08-27T03:17:33.290 ,7,0,,0,0.,4.8,0.,4.8,,0,0.,4.8,0.,4.8
1989-08-27T03:17:38.090 ,7,0,,0,0.,4.8,0.,4.8,,0,0.,4.8,0.,4.8
1989-08-27T03:17:42.890 ,7,0,,0,0.,4.8,0.,4.8,,0,0.,4.8,0.,4.8
1989-08-27T03:17:47.690 ,7,0,,0,1.,4.8,0.,4.8,,0,0.,4.8,0.,4.8
1989-08-27T03:17:52.490 ,7,0,,0,2.,4.8,0.,4.8,,0,0.,4.8,0.,4.8
1989-08-27T03:17:57.290 ,7,0,,0,1.,4.8,0.,4.8,,0,0.,4.8,0.,4.8
1989-08-27T03:18:02.090 ,7,0,,0,4.,4.8,0.,4.8,,0,0.,4.8,0.,4.8
1989-08-27T03:18:06.890 ,7,0,,0,2.,4.8,0.,4.8,,0,0.,4.8,0.,4.8
1989-08-27T03:18:11.690 ,7,0,,0,5.,4.8,0.,4.8,,0,0.,4.8,0.,4.8
1989-08-27T03:18:16.490 ,7,0,,0,0.,4.8,0.,4.8,,0,0.,4.8,0.,4.8
1989-08-27T03:18:21.290 ,7,0,,0,0.,4.8,0.,4.8,,0,0.,4.8,0.,4.8
1989-08-27T03:18:26.090 ,6,0,,0,0.,4.8,0.,4.8,,0,0.,4.8,0.,4.8
1989-08-27T03:18:30.890 ,6,0,,0,0.,4.8,0.,4.8,,0,0.,4.8,0.,4.8
1989-08-27T03:18:35.690 ,6,0,,0,1.,4.8,0.,4.8,,0,0.,4.8,0.,4.8
1989-08-27T03:18:40.490 ,6,0,,0,0.,4.8,0.,4.8,,0,0.,4.8,0.,4.8
1989-08-27T03:18:45.290 ,6,0,,0,0.,4.8,0.,4.8,,0,0.,4.8,0.,4.8
1989-08-27T03:18:50.090 ,6,0,,0,0.,4.8,0.,4.8,,0,0.,4.8,0.,4.8
1989-08-27T03:18:54.890 ,6,0,,0,0.,4.8,0.,4.8,,0,0.,4.8,0.,4.8
1989-08-27T03:18:59.690 ,6,0,,0,0.,4.8,0.,4.8,,0,0.,4.8,0.,4.8
1989-08-27T03:19:04.490 ,6,0,,0,0.,4.8,0.,4.8,,0,0.,4.8,0.,4.8
1989-08-27T03:19:09.290 ,6,0,,0,0.,4.8,0.,4.8,,0,0.,4.8,0.,4.8
1989-08-27T03:19:14.090 ,5,0,,0,0.,4.8,0.,4.8,,0,0.,4.8,0.,4.8
1989-08-27T03:19:18.890 ,5,0,,0,0.,4.8,0.,4.8,,0,0.,4.8,0.,4.8
1989-08-27T03:19:23.690 ,5,0,,0,1.,4.8,0.,4.8,,0,0.,4.8,0.,4.8
1989-08-27T03:19:28.490 ,5,0,,0,0.,4.8,0.,4.8,,0,0.,4.8,0.,4.8
1989-08-27T03:19:33.290 ,5,0,,0,0.,4.8,0.,4.8,,0,0.,4.8,0.,4.8
1989-08-27T03:19:38.090 ,5,0,,0,0.,4.8,0.,4.8,,0,0.,4.8,0.,4.8
1989-08-27T03:19:42.890 ,5,0,,0,0.,4.8,0.,4.8,,0,0.,4.8,0.,4.8
1989-08-27T03:19:47.690 ,5,0,,0,0.,4.8,0.,4.8,,0,0.,4.8,0.,4.8
1989-08-27T03:19:52.490 ,5,0,,0,0.,4.8,0.,4.8,,0,0.,4.8,0.,4.8
1989-08-27T03:19:57.290 ,5,0,,0,0.,4.8,0.,4.8,,0,0.,4.8,0.,4.8
1989-08-27T03:20:02.090 ,4,0,,0,0.,4.8,0.,4.8,,0,0.,4.8,0.,4.8
1989-08-27T03:20:06.890 ,4,0,,0,0.,4.8,0.,4.8,,0,0.,4.8,0.,4.8
1989-08-27T03:20:11.690 ,4,0,,0,1.,4.8,0.,4.8,,0,0.,4.8,0.,4.8
1989-08-27T03:20:16.490 ,4,0,,0,0.,4.8,0.,4.8,,0,0.,4.8,0.,4.8
1989-08-27T03:20:21.290 ,4,0,,0,0.,4.8,0.,4.8,,0,0.,4.8,0.,4.8
1989-08-27T03:20:26.090 ,4,0,,0,0.,4.8,0.,4.8,,0,0.,4.8,0.,4.8
1989-08-27T03:20:30.890 ,4,0,,0,0.,4.8,0.,4.8,,0,0.,4.8,0.,4.8
1989-08-27T03:20:35.690 ,4,0,,0,0.,4.8,0.,4.8,,0,0.,4.8,0.,4.8
1989-08-27T03:20:40.490 ,4,0,,0,0.,4.8,0.,4.8,,0,0.,4.8,0.,4.8
1989-08-27T03:20:45.290 ,4,0,,0,0.,4.8,0.,4.8,,0,0.,4.8,0.,4.8
1989-08-27T03:20:50.090 ,3,0,,0,0.,4.8,0.,4.8,,0,0.,4.8,0.,4.8
1989-08-27T03:20:54.890 ,3,0,,0,0.,4.8,0.,4.8,,0,0.,4.8,0.,4.8
1989-08-27T03:20:59.690 ,3,0,,0,1.,4.8,0.,4.8,,0,0.,4.8,0.,4.8
1989-08-27T03:21:04.490 ,3,0,,0,0.,4.8,0.,4.8,,0,0.,4.8,0.,4.8
1989-08-27T03:21:09.290 ,3,0,,0,0.,4.8,0.,4.8,,0,0.,4.8,0.,4.8
1989-08-27T03:21:14.090 ,3,0,,0,0.,4.8,0.,4.8,,0,0.,4.8,0.,4.8
1989-08-27T03:21:18.890 ,3,0,,0,0.,4.8,0.,4.8,,0,0.,4.8,0.,4.8
1989-08-27T03:21:23.690 ,3,0,,0,0.,4.8,0.,4.8,,0,0.,4.8,0.,4.8
1989-08-27T03:21:28.490 ,3,0,,0,0.,4.8,0.,4.8,,0,0.,4.8,0.,4.8
1989-08-27T03:21:33.290 ,3,0,,0,0.,4.8,0.,4.8,,0,0.,4.8,0.,4.8
1989-08-27T03:21:38.090 ,2,0,,0,0.,4.8,0.,4.8,,0,0.,4.8,0.,4.8
1989-08-27T03:21:42.890 ,2,0,,0,0.,4.8,0.,4.8,,0,0.,4.8,0.,4.8
1989-08-27T03:21:47.690 ,2,0,,0,1.,4.8,0.,4.8,,0,0.,4.8,0.,4.8
1989-08-27T03:21:52.490 ,2,0,,0,0.,4.8,0.,4.8,,0,0.,4.8,0.,4.8
1989-08-27T03:21:57.290 ,2,0,,0,0.,4.8,0.,4.8,,0,0.,4.8,0.,4.8
1989-08-27T03:22:02.090 ,2,0,,0,0.,4.8,0.,4.8,,0,0.,4.8,0.,4.8
1989-08-27T03:22:06.890 ,2,0,,0,0.,4.8,0.,4.8,,0,0.,4.8,0.,4.8
1989-08-27T03:22:11.690 ,2,0,,0,0.,4.8,0.,4.8,,0,0.,4.8,0.,4.8
1989-08-27T03:22:16.490 ,2,0,,0,0.,4.8,0.,4.8,,0,0.,4.8,0.,4.8
1989-08-27T03:22:21.290 ,2,0,,0,0.,4.8,0.,4.8,,0,0.,4.8,0.,4.8
1989-08-27T03:22:26.090 ,1,0,,0,0.,4.8,0.,4.8,,0,0.,4.8,0.,4.8
1989-08-27T03:22:30.890 ,1,0,,0,0.,4.8,0.,4.8,,0,0.,4.8,0.,4.8
1989-08-27T03:22:35.690 ,1,0,,0,,0,,0,,0,,0,,0
1989-08-27T03:22:40.490 ,1,0,,0,0.,4.8,0.,4.8,,0,0.,4.8,0.,4.8
1989-08-27T03:22:45.290 ,1,0,,0,0.,4.8,0.,4.8,,0,0.,4.8,0.,4.8
1989-08-27T03:22:50.090 ,1,0,,0,0.,4.8,0.,4.8,,0,0.,4.8,0.,4.8
1989-08-27T03:22:54.890 ,1,0,,0,0.,4.8,0.,4.8,,0,0.,4.8,0.,4.8
1989-08-27T03:22:59.690 ,1,0,,0,0.,4.8,0.,4.8,,0,0.,4.8,0.,4.8
1989-08-27T03:23:04.490 ,1,0,,0,0.,4.8,0.,4.8,,0,0.,4.8,0.,4.8
1989-08-27T03:23:09.290 ,1,0,,0,0.,4.8,0.,4.8,,0,0.,4.8,0.,4.8
1989-08-27T03:23:14.090 ,0,0,,0,0.,4.8,0.,4.8,,0,0.,4.8,0.,4.8
1989-08-27T03:23:18.890 ,0,0,,0,0.,4.8,0.,4.8,,0,0.,4.8,0.,4.8
1989-08-27T03:23:23.690 ,0,0,,0,1.,4.8,0.,4.8,,0,0.,4.8,0.,4.8
1989-08-27T03:23:28.490 ,0,0,,0,0.,4.8,0.,4.8,,0,0.,4.8,0.,4.8
1989-08-27T03:23:33.290 ,0,0,,0,0.,4.8,0.,4.8,,0,0.,4.8,0.,4.8
1989-08-27T03:23:38.090 ,0,0,,0,0.,4.8,0.,4.8,,0,0.,4.8,0.,4.8
1989-08-27T03:23:42.890 ,0,0,,0,0.,4.8,0.,4.8,,0,0.,4.8,0.,4.8
1989-08-27T03:23:47.690 ,0,0,,0,0.,4.8,0.,4.8,,0,0.,4.8,0.,4.8
1989-08-27T03:23:52.490 ,0,0,,0,0.,4.8,0.,4.8,,0,0.,4.8,0.,4.8
1989-08-27T03:23:57.290 ,0,0,,0,0.,4.8,0.,4.8,,0,0.,4.8,0.,4.8
1989-08-27T03:24:02.090 ,0,0,,0,0.,4.8,0.,4.8,,0,0.,4.8,0.,4.8
1989-08-27T03:24:06.890 ,0,0,,0,,0,,0,,0,,0,,0
1989-08-27T03:24:11.690 ,0,0,,0,,0,,0,,0,,0,,0
1989-08-27T03:24:16.490 ,0,0,,0,,0,,0,,0,,0,,0
1989-08-27T03:24:21.290 ,0,0,,0,,0,,0,,0,,0,,0
1989-08-27T03:24:26.090 ,0,0,,0,,0,,0,,0,,0,,0
1989-08-27T03:24:30.890 ,0,0,,0,,0,,0,,0,,0,,0
1989-08-27T03:24:35.690 ,0,0,,0,,0,,0,,0,,0,,0
1989-08-27T03:24:40.490 ,0,0,,0,,0,,0,,0,,0,,0
1989-08-27T03:24:45.290 ,0,0,,0,,0,,0,,0,,0,,0
1989-08-27T03:24:09.890 ,0,0,,0,,0,,0,,0,,0,,0
1989-08-27T03:24:14.690 ,0,0,,0,0.,4.8,0.,4.8,,0,0.,4.8,0.,4.8
1989-08-27T03:24:19.490 ,0,0,,0,1.,4.8,0.,4.8,,0,0.,4.8,0.,4.8
1989-08-27T03:24:24.290 ,0,0,,0,0.,4.8,0.,4.8,,0,0.,4.8,0.,4.8
1989-08-27T03:24:29.090 ,0,0,,0,0.,4.8,0.,4.8,,0,0.,4.8,0.,4.8
1989-08-27T03:24:26.090 ,0,0,,0,0.,4.8,0.,4.8,,0,0.,4.8,0.,4.8
1989-08-27T03:24:30.890 ,0,0,,0,0.,4.8,0.,4.8,,0,0.,4.8,0.,4.8
1989-08-27T03:24:35.690 ,0,0,,0,,0,,0,,0,,0,,0
1989-08-27T03:24:40.490 ,0,0,,0,,0,,0,,0,,0,,0
1989-08-27T03:24:45.290 ,0,0,,0,,0,,0,,0,,0,,0
1989-08-27T03:25:21.290 ,0,0,,0,,0,,0,,0,,0,,0
1989-08-27T03:25:26.090 ,0,0,,0,0.,4.8,0.,4.8,,0,0.,4.8,0.,4.8
1989-08-27T03:25:30.890 ,0,0,,0,0.,4.8,0.,4.8,,0,0.,4.8,0.,4.8
1989-08-27T03:25:35.690 ,0,0,,0,0.,4.8,0.,4.8,,0,0.,4.8,0.,4.8
1989-08-27T03:25:40.490 ,0,0,,0,0.,4.8,0.,4.8,,0,0.,4.8,0.,4.8
1989-08-27T03:25:38.090 ,2,0,,0,0.,4.8,0.,4.8,,0,0.,4.8,0.,4.8
1989-08-27T03:25:42.890 ,2,0,,0,0.,4.8,0.,4.8,,0,0.,4.8,0.,4.8
1989-08-27T03:25:47.690 ,2,0,,0,1.,4.8,0.,4.8,,0,0.,4.8,0.,4.8
1989-08-27T03:25:52.490 ,2,0,,0,0.,4.8,0.,4.8,,0,0.,4.8,0.,4.8
1989-08-27T03:25:57.290 ,2,0,,0,0.,4.8,0.,4.8,,0,0.,4.8,0.,4.8
1989-08-27T03:26:02.090 ,2,0,,0,0.,4.8,0.,4.8,,0,0.,4.8,0.,4.8
1989-08-27T03:26:06.890 ,2,0,,0,0.,4.8,0.,4.8,,0,0.,4.8,0.,4.8
1989-08-27T03:26:11.690 ,2,0,,0,0.,4.8,0.,4.8,,0,0.,4.8,0.,4.8
1989-08-27T03:26:16.490 ,2,0,,0,0.,4.8,0.,4.8,,0,0.,4.8,0.,4.8
1989-08-27T03:26:21.290 ,2,0,,0,0.,4.8,0.,4.8,,0,0.,4.8,0.,4.8
1989-08-27T03:26:26.090 ,3,0,,0,0.,4.8,0.,4.8,,0,0.,4.8,0.,4.8
1989-08-27T03:26:30.890 ,3,0,,0,0.,4.8,0.,4.8,,0,0.,4.8,0.,4.8
1989-08-27T03:26:35.690 ,3,0,,0,1.,4.8,0.,4.8,,0,0.,4.8,0.,4.8
1989-08-27T03:26:40.490 ,3,0,,0,0.,4.8,0.,4.8,,0,0.,4.8,0.,4.8
1989-08-27T03:26:45.290 ,3,0,,0,0.,4.8,0.,4.8,,0,0.,4.8,0.,4.8
1989-08-27T03:26:50.090 ,3,0,,0,0.,4.8,0.,4.8,,0,0.,4.8,0.,4.8
1989-08-27T03:26:54.890 ,3,0,,0,0.,4.8,0.,4.8,,0,0.,4.8,0.,4.8
1989-08-27T03:26:59.690 ,3,0,,0,0.,4.8,0.,4.8,,0,0.,4.8,0.,4.8
1989-08-27T03:27:04.490 ,3,0,,0,0.,4.8,0.,4.8,,0,0.,4.8,0.,4.8
1989-08-27T03:27:09.290 ,3,0,,0,0.,4.8,0.,4.8,,0,0.,4.8,0.,4.8
1989-08-27T03:27:14.090 ,4,0,,0,0.,4.8,0.,4.8,,0,0.,4.8,0.,4.8
1989-08-27T03:27:18.890 ,4,0,,0,0.,4.8,0.,4.8,,0,0.,4.8,0.,4.8
1989-08-27T03:27:23.690 ,4,0,,0,1.,4.8,0.,4.8,,0,0.,4.8,0.,4.8
1989-08-27T03:27:28.490 ,4,0,,0,0.,4.8,0.,4.8,,0,0.,4.8,0.,4.8
1989-08-27T03:27:33.290 ,4,0,,0,0.,4.8,0.,4.8,,0,0.,4.8,0.,4.8
1989-08-27T03:27:38.090 ,4,0,,0,0.,4.8,0.,4.8,,0,0.,4.8,0.,4.8
1989-08-27T03:27:42.890 ,4,0,,0,0.,4.8,0.,4.8,,0,0.,4.8,0.,4.8
1989-08-27T03:27:47.690 ,4,0,,0,0.,4.8,0.,4.8,,0,0.,4.8,0.,4.8
1989-08-27T03:27:52.490 ,4,0,,0,0.,4.8,0.,4.8,,0,0.,4.8,0.,4.8
1989-08-27T03:27:57.290 ,4,0,,0,0.,4.8,0.,4.8,,0,0.,4.8,0.,4.8
1989-08-27T03:28:02.090 ,5,0,,0,0.,4.8,0.,4.8,,0,0.,4.8,0.,4.8
1989-08-27T03:28:06.890 ,5,0,,0,0.,4.8,0.,4.8,,0,0.,4.8,0.,4.8
1989-08-27T03:28:11.690 ,5,0,,0,1.,4.8,0.,4.8,,0,0.,4.8,0.,4.8
1989-08-27T03:28:16.490 ,5,0,,0,0.,4.8,0.,4.8,,0,0.,4.8,0.,4.8
1989-08-27T03:28:21.290 ,5,0,,0,0.,4.8,0.,4.8,,0,0.,4.8,0.,4.8
1989-08-27T03:28:26.090 ,5,0,,0,0.,4.8,0.,4.8,,0,0.,4.8,0.,4.8
1989-08-27T03:28:30.890 ,5,0,,0,0.,4.8,0.,4.8,,0,0.,4.8,0.,4.8
1989-08-27T03:28:35.690 ,5,0,,0,1.,4.8,0.,4.8,,0,0.,4.8,0.,4.8
1989-08-27T03:28:40.490 ,5,0,,0,0.,4.8,0.,4.8,,0,0.,4.8,0.,4.8
1989-08-27T03:28:45.290 ,5,0,,0,0.,4.8,0.,4.8,,0,0.,4.8,0.,4.8
1989-08-27T03:28:50.090 ,6,0,,0,0.,4.8,0.,4.8,,0,0.,4.8,0.,4.8
1989-08-27T03:28:54.890 ,6,0,,0,0.,4.8,0.,4.8,,0,0.,4.8,0.,4.8
1989-08-27T03:28:59.690 ,6,0,,0,1.,4.8,0.,4.8,,0,0.,4.8,0.,4.8
1989-08-27T03:29:04.490 ,6,0,,0,0.,4.8,0.,4.8,,0,0.,4.8,0.,4.8
1989-08-27T03:29:09.290 ,6,0,,0,0.,4.8,0.,4.8,,0,0.,4.8,0.,4.8
1989-08-27T03:29:14.090 ,6,0,,0,0.,4.8,0.,4.8,,0,0.,4.8,0.,4.8
1989-08-27T03:29:18.890 ,6,0,,0,0.,4.8,0.,4.8,,0,0.,4.8,0.,4.8
1989-08-27T03:29:23.690 ,6,0,,0,0.,4.8,0.,4.8,,0,0.,4.8,0.,4.8
1989-08-27T03:29:28.490 ,6,0,,0,0.,4.8,0.,4.8,,0,0.,4.8,0.,4.8
1989-08-27T03:29:33.290 ,6,0,,0,0.,4.8,0.,4.8,,0,0.,4.8,0.,4.8
1989-08-27T03:29:38.090 ,7,0,,0,0.,4.8,0.,4.8,,0,0.,4.8,0.,4.8
1989-08-27T03:29:42.890 ,7,0,,0,0.,4.8,0.,4.8,,0,0.,4.8,0.,4.8
1989-08-27T03:29:47.690 ,7,0,,0,3.,4.8,0.,4.8,,0,0.,4.8,0.,4.8
1989-08-27T03:29:52.490 ,7,0,,0,4.,4.8,0.,4.8,,0,0.,4.8,0.,4.8
1989-08-27T03:29:57.290 ,7,0,,0,1.,4.8,0.,4.8,,0,0.,4.8,0.,4.8
1989-08-27T03:30:02.090 ,7,0,,0,4.,4.8,0.,4.8,,0,0.,4.8,0.,4.8
1989-08-27T03:30:06.890 ,7,0,,0,7.,4.8,0.,4.8,,0,0.,4.8,0.,4.8